Estación meteorológica de Susqueda - Presa de (La Selva, Susqueda)

Consulta los datos en tiempo real de la estación meteorológica de Susqueda - Presa de





Hora UTC 17:25
Temperatura 14.1 ºC
Humedad 87.0 %
Presión 1008.5 hPa
Pluja 5.2 mm
Velocidad viento 0.0 km/h
Dirección viento SSW

Webcam

Datos diarios 2026-05-05



Hora UTC (invierno +1h; verano +2h)
Temperatura (ºC) Humedad (%) Presión (hPa) Velocidad viento (km/h) Precipitación (mm)
Hora UTC Aire Humedad Presión Vel. Dir. Vel. Max Dir. Intent. máx 5 min.
00:05 11.8 90.0 1010.8 0.0 W 0.0 0.0
00:10 11.8 90.0 1010.9 0.0 W 0.0 0.0
00:15 11.7 89.0 1010.9 0.0 W 0.0 0.0
00:20 11.7 90.0 1010.9 0.0 NW 0.0 0.0
00:25 11.6 90.0 1010.9 0.0 WNW 4.8 0.0
00:30 11.6 90.0 1010.9 0.0 W 4.8 0.0
00:35 11.6 89.0 1010.7 0.0 W 0.0 0.0
00:40 11.4 89.0 1010.6 0.0 WNW 0.0 0.0
00:45 11.3 90.0 1010.6 0.0 W 0.0 0.0
00:50 11.3 89.0 1010.6 0.0 W 1.6 0.0
00:55 11.3 90.0 1010.6 0.0 W 3.2 0.0
01:00 11.3 90.0 1010.5 0.0 W 3.2 0.0
01:05 11.3 89.0 1010.4 0.0 W 1.6 0.0
01:10 11.3 89.0 1010.4 0.0 W 4.8 0.0
01:15 11.3 90.0 1010.4 0.0 W 0.0 0.0
01:20 11.2 90.0 1010.4 0.0 W 0.0 0.0
01:25 11.3 90.0 1010.5 0.0 W 1.6 0.0
01:30 11.3 89.0 1010.6 0.0 W 1.6 0.0
01:35 11.2 89.0 1010.6 0.0 SW 1.6 0.0
01:40 11.1 89.0 1010.5 0.0 NE 1.6 0.0
01:45 10.9 89.0 1010.5 0.0 NNE 1.6 0.0
01:50 10.7 90.0 1010.5 0.0 W 0.0 0.0
01:55 10.6 90.0 1010.5 0.0 W 0.0 0.0
02:00 10.5 90.0 1010.5 0.0 WNW 9.7 0.0
02:05 10.3 91.0 1010.6 0.0 NW 9.7 0.0
02:10 10.4 91.0 1010.6 0.0 WNW 0.0 0.0
02:15 10.3 90.0 1010.5 0.0 WNW 0.0 0.0
02:20 10.4 91.0 1010.6 0.0 WNW 0.0 0.0
02:25 10.6 91.0 1010.6 0.0 W 0.0 0.0
02:30 10.5 90.0 1010.7 0.0 WNW 0.0 0.0
02:35 10.6 91.0 1010.7 0.0 W 0.0 0.0
02:40 10.7 91.0 1010.6 0.0 WNW 0.0 0.0
02:45 10.7 90.0 1010.6 0.0 W 0.0 0.0
02:50 10.7 90.0 1010.5 0.0 W 3.2 0.0
02:55 10.8 90.0 1010.5 0.0 WSW 3.2 0.0
03:00 10.7 90.0 1010.5 0.0 WSW 0.0 0.0
03:05 10.6 90.0 1010.5 0.0 W 0.0 0.0
03:10 10.6 91.0 1010.5 0.0 WSW 0.0 0.0
03:15 10.6 90.0 1010.5 0.0 WNW 1.6 0.0
03:20 10.5 90.0 1010.4 0.0 NW 1.6 0.0
03:25 10.5 90.0 1010.5 0.0 WSW 0.0 0.0
03:30 10.3 90.0 1010.6 0.0 WNW 0.0 0.0
03:35 10.4 90.0 1010.4 0.0 WSW 1.6 0.0
03:40 10.3 91.0 1010.4 0.0 WSW 1.6 0.0
03:45 10.4 91.0 1010.4 4.8 W 11.3 0.0
03:50 10.7 90.0 1010.3 8.0 WSW 11.3 0.0
03:55 10.6 90.0 1010.3 0.0 W 11.3 0.0
04:00 10.6 90.0 1010.3 0.0 WNW 9.7 0.0
04:05 10.6 90.0 1010.2 0.0 W 1.6 0.0
04:10 10.6 90.0 1010.3 0.0 W 6.4 0.0
04:15 10.4 90.0 1010.4 0.0 WNW 6.4 0.0
04:20 10.4 90.0 1010.4 0.0 W 6.4 0.0
04:25 10.3 90.0 1010.2 0.0 WNW 1.6 0.0
04:30 10.3 90.0 1010.2 0.0 W 1.6 0.0
04:35 10.4 90.0 1010.3 0.0 W 1.6 0.0
04:40 10.3 90.0 1010.4 0.0 W 1.6 0.0
04:45 10.3 90.0 1010.4 0.0 WNW 1.6 0.0
04:50 10.2 90.0 1010.4 0.0 WNW 1.6 0.0
04:55 10.1 90.0 1010.5 0.0 W 0.0 0.0
05:00 10.1 90.0 1010.4 0.0 WNW 6.4 0.0
05:05 10.0 91.0 1010.5 0.0 W 6.4 0.0
05:10 10.1 91.0 1010.5 0.0 NW 0.0 0.0
05:15 10.1 91.0 1010.6 0.0 NW 0.0 0.0
05:20 9.9 91.0 1010.6 0.0 WNW 0.0 0.0
05:25 10.0 91.0 1010.7 0.0 WNW 0.0 0.0
05:30 9.9 91.0 1010.8 0.0 W 0.0 0.0
05:35 9.9 91.0 1010.9 0.0 WNW 6.4 0.0
05:40 10.0 91.0 1010.8 0.0 WNW 6.4 0.0
05:45 10.1 91.0 1010.9 0.0 W 6.4 0.0
05:50 10.1 91.0 1010.9 0.0 WNW 6.4 0.0
05:55 10.1 91.0 1010.8 0.0 W 1.6 0.0
06:00 10.1 91.0 1010.9 6.4 W 11.3 0.0
06:05 10.4 90.0 1010.9 6.4 W 11.3 0.0
06:10 10.4 90.0 1010.9 8.0 N 11.3 0.0
06:15 10.6 90.0 1010.9 0.0 W 11.3 0.0
06:20 10.5 90.0 1011.0 0.0 W 11.3 0.0
06:25 10.6 90.0 1010.9 0.0 W 6.4 0.0
06:30 10.6 90.0 1010.9 0.0 W 0.0 0.0
06:35 10.6 90.0 1010.9 0.0 NW 1.6 0.0
06:40 10.7 90.0 1011.0 11.3 W 11.3 0.0
06:45 11.2 90.0 1011.0 9.7 W 12.9 0.0
06:50 11.1 89.0 1011.0 4.8 W 11.3 0.0
06:55 11.3 89.0 1011.0 9.7 W 11.3 0.0
07:00 11.3 88.0 1010.9 3.2 W 11.3 0.0
07:05 11.4 88.0 1010.9 6.4 W 11.3 0.0
07:10 11.3 88.0 1011.0 6.4 W 9.7 0.0
07:15 11.4 88.0 1011.0 0.0 W 9.7 0.0
07:20 11.6 88.0 1011.0 9.7 W 9.7 0.0
07:25 11.7 86.0 1011.0 6.4 N 11.3 0.0
07:30 11.8 86.0 1011.0 6.4 W 11.3 0.0
07:35 11.9 85.0 1010.9 9.7 W 11.3 0.0
07:40 12.1 85.0 1010.9 12.9 W 12.9 0.0
07:45 12.1 85.0 1010.8 4.8 W 12.9 0.0
07:50 12.2 85.0 1010.7 9.7 W 11.3 0.0
07:55 12.3 84.0 1010.6 8.0 WSW 12.9 0.0
08:00 12.3 84.0 1010.5 8.0 N 12.9 0.0
08:05 12.4 84.0 1010.5 6.4 W 11.3 0.0
08:10 12.4 84.0 1010.5 4.8 W 11.3 0.0
08:15 12.5 83.0 1010.6 9.7 WNW 11.3 0.0
08:20 12.7 84.0 1010.7 9.7 W 11.3 0.0
08:25 12.9 85.0 1010.7 9.7 W 12.9 0.0
08:30 12.9 84.0 1010.8 11.3 WNW 12.9 0.0
08:35 13.1 82.0 1010.7 6.4 W 11.3 0.0
08:40 13.2 82.0 1010.7 0.0 W 11.3 0.0
08:45 13.3 81.0 1010.6 0.0 W 6.4 0.0
08:50 13.4 81.0 1010.5 0.0 W 1.6 0.0
08:55 13.7 82.0 1010.5 0.0 WSW 1.6 0.0
09:00 13.8 81.0 1010.5 0.0 WSW 6.4 0.0
09:05 14.1 81.0 1010.4 0.0 WSW 6.4 0.0
09:10 14.1 80.0 1010.4 0.0 WSW 1.6 0.0
09:15 14.3 79.0 1010.4 0.0 SW 0.0 0.0
09:20 14.6 79.0 1010.3 0.0 SW 1.6 0.0
09:25 14.8 78.0 1010.3 0.0 SW 1.6 0.0
09:30 14.8 77.0 1010.3 0.0 SW 0.0 0.0
09:35 14.7 78.0 1010.4 0.0 SW 0.0 0.0
09:40 14.7 77.0 1010.4 0.0 WSW 0.0 0.0
09:45 14.7 77.0 1010.4 0.0 W 0.0 0.0
09:50 14.9 80.0 1010.4 0.0 W 9.7 0.0
09:55 14.9 81.0 1010.4 0.0 W 9.7 0.0
10:00 14.7 80.0 1010.4 0.0 W 9.7 0.0
10:05 14.8 80.0 1010.3 0.0 W 0.0 0.0
10:10 14.8 80.0 1010.1 0.0 W 1.6 0.0
10:15 14.9 80.0 1010.0 0.0 W 0.0 0.0
10:20 15.2 80.0 1010.2 0.0 W 0.0 0.0
10:25 15.3 80.0 1010.2 0.0 E 0.0 0.0
10:30 15.6 82.0 1010.1 0.0 E 0.0 0.0
10:35 16.0 80.0 1010.1 0.0 E 1.6 0.0
10:40 16.4 80.0 1010.1 0.0 ESE 1.6 0.0
10:45 16.8 79.0 1010.0 0.0 E 1.6 0.0
10:50 17.4 79.0 1009.9 0.0 ESE 1.6 0.0
10:55 18.2 79.0 1009.7 1.6 E 9.7 0.0
11:00 18.9 77.0 1009.5 0.0 ESE 9.7 0.0
11:05 18.9 76.0 1009.5 0.0 E 4.8 0.0
11:10 18.5 74.0 1009.5 1.6 ENE 8.0 0.0
11:15 18.1 76.0 1009.4 1.6 ENE 8.0 0.0
11:20 17.8 77.0 1009.4 0.0 E 4.8 0.0
11:25 17.4 78.0 1009.8 0.0 E 3.2 0.0
11:30 16.9 79.0 1010.1 0.0 SW 1.6 0.0
11:35 16.3 82.0 1009.9 0.0 W 9.7 1.2
11:40 15.1 83.0 1009.8 0.0 E 11.3 0.6
11:45 13.8 84.0 1009.8 0.0 NE 8.0 0.0
11:50 13.3 87.0 1009.8 0.0 NNE 8.0 0.0
11:55 13.8 89.0 1009.8 0.0 N 4.8 0.0
12:00 14.4 90.0 1009.7 0.0 ENE 4.8 0.0
12:05 14.8 89.0 1009.6 4.8 ENE 6.4 0.0
12:10 15.1 88.0 1009.4 0.0 E 9.7 0.0
12:15 15.7 90.0 1009.4 1.6 E 9.7 0.0
12:20 15.9 90.0 1009.2 0.0 ENE 8.0 0.0
12:25 16.1 89.0 1009.1 0.0 NE 8.0 0.0
12:30 15.9 89.0 1009.1 1.6 E 3.2 0.0
12:35 15.3 88.0 1009.1 8.0 E 11.3 0.0
12:40 15.3 88.0 1009.0 0.0 ENE 9.7 0.0
12:45 15.2 88.0 1009.0 0.0 NE 9.7 0.0
12:50 15.3 88.0 1008.8 0.0 ENE 6.4 0.0
12:55 15.3 88.0 1009.0 0.0 ENE 4.8 0.0
13:00 15.2 87.0 1009.2 0.0 E 3.2 0.0
13:05 15.2 87.0 1009.4 0.0 WNW 3.2 0.0
13:10 15.2 86.0 1009.4 0.0 WNW 0.0 0.0
13:15 14.8 84.0 1009.6 6.4 N 12.9 0.0
13:20 14.6 85.0 1009.6 0.0 SE 12.9 0.4
13:25 14.3 86.0 1009.7 0.0 WSW 6.4 0.4
13:30 13.8 85.0 1009.7 0.0 WSW 1.6 0.0
13:35 13.6 86.0 1009.6 0.0 SSE 1.6 0.0
13:40 13.4 87.0 1009.7 0.0 SW 1.6 0.0
13:45 13.3 86.0 1009.7 0.0 W 1.6 0.8
13:50 13.3 86.0 1009.4 0.0 W 1.6 1.2
13:55 13.5 87.0 1009.3 0.0 E 1.6 0.2
14:00 13.6 88.0 1009.4 0.0 SW 1.6 0.2
14:05 13.6 88.0 1009.1 0.0 SW 0.0 0.0
14:10 13.9 88.0 1008.9 0.0 WSW 0.0 0.0
14:15 14.2 87.0 1008.8 0.0 WSW 3.2 0.0
14:20 14.3 87.0 1008.8 0.0 SW 0.0 0.0
14:25 14.2 87.0 1008.9 0.0 SW 0.0 0.0
14:30 14.2 87.0 1008.8 0.0 SW 0.0 0.0
14:35 14.9 89.0 1008.6 0.0 ESE 0.0 0.0
14:40 14.9 87.0 1008.4 0.0 ENE 3.2 0.0
14:45 15.1 89.0 1008.3 0.0 NE 3.2 0.0
14:50 15.3 89.0 1008.3 0.0 NE 0.0 0.0
14:55 15.1 87.0 1008.3 0.0 NE 0.0 0.0
15:00 15.6 89.0 1008.3 0.0 NE 0.0 0.0
15:05 15.6 88.0 1008.3 0.0 ENE 0.0 0.0
15:10 15.4 87.0 1008.3 0.0 E 1.6 0.0
15:15 15.3 87.0 1008.3 0.0 NE 1.6 0.0
15:20 15.1 88.0 1008.3 0.0 ENE 0.0 0.0
15:25 15.0 89.0 1008.3 0.0 E 0.0 0.0
15:30 15.1 89.0 1008.5 0.0 ENE 0.0 0.0
15:35 15.1 89.0 1008.5 0.0 ENE 0.0 0.0
15:40 15.1 89.0 1008.6 0.0 ENE 0.0 0.0
15:45 15.1 89.0 1008.5 0.0 E 0.0 0.0
15:50 15.1 89.0 1008.5 0.0 ENE 0.0 0.0
15:55 15.0 89.0 1008.6 0.0 NE 0.0 0.0
16:00 14.8 89.0 1008.6 0.0 NE 0.0 0.0
16:05 14.8 89.0 1008.7 0.0 ENE 0.0 0.0
16:10 14.8 89.0 1008.6 0.0 ENE 0.0 0.0
16:15 14.8 89.0 1008.5 0.0 E 0.0 0.0
16:20 14.8 89.0 1008.5 0.0 ENE 0.0 0.0
16:25 14.7 89.0 1008.5 0.0 ENE 0.0 0.0
16:30 14.6 90.0 1008.4 0.0 ENE 0.0 0.0
16:35 14.6 90.0 1008.5 0.0 ENE 0.0 0.0
16:40 14.7 90.0 1008.6 0.0 ENE 0.0 0.0
16:45 14.8 90.0 1008.5 0.0 ENE 0.0 0.0
16:50 14.7 90.0 1008.3 0.0 ENE 0.0 0.0
16:55 14.7 90.0 1008.2 0.0 E 0.0 0.0
17:00 14.6 90.0 1008.4 0.0 E 0.0 0.0
17:05 14.6 89.0 1008.6 0.0 W 1.6 0.0
17:10 14.8 90.0 1008.6 0.0 NW 1.6 0.0
17:15 14.8 90.0 1008.5 0.0 NW 0.0 0.2
17:20 14.7 90.0 1008.5 0.0 NW 0.0 0.0
17:25 14.1 87.0 1008.5 0.0 SSW 0.0 0.0
Máxima 18.9 91.0 1011.0 12.9 W 12.9 1.2
Mínima 9.9 74.0 1008.2
Total 5.2